QPF
0.03 0.04 0.04 0.05 0.05 0.04 0.04 0.02 0.02 0.02 0.02 0.02 0.02 0.02 0.02 0.03 0.03 0.02 0.01 0.01 0.01 0.01 0.01 0.01 0.01 0.01 0.02 0.03 0.03 0.03 0.03 0.02 0.02 0.03 0.02 0.02 0.02 0.03 0.05 0.05 0.05 0.07 0.06
0.03 0.03 0.03 0.04 0.04 0.04 0.03 0.03 0.02 0.01 0.01 0.02 0.03 0.03 0.04 0.04 0.03 0.02 0.02 0.02 0.01 0.01 0.01 0.02 0.02 0.01 0.01 0.02 0.04 0.04 0.03 0.03 0.03 0.04 0.03 0.02 0.02 0.02 0.03 0.04 0.05 0.05 0.05
0.02 0.03 0.02 0.03 0.03 0.03 0.02 0.02 0.01 0.01 0.01 0.02 0.03 0.02 0.03 0.03 0.04 0.03 0.03 0.02 0.01 0.01 0.01 0.01 0.02 0.02 0.01 0.02 0.03 0.04 0.03 0.03 0.03 0.04 0.04 0.03 0.02 0.02 0.02 0.03 0.03 0.03 0.04
0.03 0.05 0.04 0.03 0.02 0.02 0.03 0.01 0.01 0.01 0.01 0.02 0.02 0.01 0.01 0.01 0.02 0.02 0.02 0.02 0.01 0.01 0.01 0.01 0.01 0.01 0.01 0.02 0.02 0.02 0.02 0.01 0.02 0.03 0.04 0.02 0.01 0.02 0.02 0.01 0.01 0.02 0.05
0.03 0.07 0.08 0.03 0.02 0.02 0.03 0.02 0.01 0.02 0.01 0.02 0.01 0.01 0.01 0.01 0.01 0.01 0.01 0.01 0.01 0.01 0.01 0.01 0.01 0.02 0.01 0.02 0.02 0.02 0.02 0.02 0.02 0.03 0.03 0.02 0.01 0.02 0.02 0.02 0.02 0.02 0.03
0.03 0.04 0.07 0.05 0.02 0.02 0.04 0.03 0.03 0.03 0.02 0.02 0.02 0.01 0.01 0.01 0.01 0.01 0.00 0.01 0.01 0.00 0.01 0.01 0.01 0.01 0.01 0.01 0.01 0.01 0.02 0.02 0.01 0.02 0.02 0.02 0.02 0.02 0.02 0.02 0.02 0.03 0.03
0.02 0.02 0.04 0.06 0.04 0.02 0.02 0.02 0.02 0.02 0.02 0.02 0.01 0.01 0.01 0.01 0.01 0.01 0.01 0.01 0.01 0.01 0.01 0.00 0.00 0.01 0.01 0.01 0.01 0.01 0.00 0.01 0.01 0.02 0.02 0.02 0.02 0.02 0.03 0.02 0.02 0.02 0.02
0.02 0.03 0.06 0.06 0.05 0.02 0.02 0.02 0.01 0.01 0.01 0.01 0.01 0.00 0.01 0.01 0.01 0.00 0.01 0.01 0.00 0.01 0.00 0.00 0.00 0.00 0.01 0.01 0.01 0.02 0.01 0.01 0.01 0.01 0.01 0.01 0.01 0.02 0.03 0.03 0.03 0.02 0.02
0.03 0.06 0.08 0.08 0.07 0.03 0.02 0.02 0.01 0.01 0.01 0.00 0.00 0.01 0.01 0.01 0.01 0.00 0.00 0.01 0.01 0.01 0.01 0.01 0.01 0.01 0.01 0.01 0.02 0.05 0.03 0.02 0.01 0.02 0.01 0.01 0.00 0.01 0.02 0.03 0.04 0.03 0.02
0.04 0.07 0.08 0.08 0.06 0.03 0.02 0.02 0.01 0.01 0.01 0.01 0.01 0.01 0.01 0.01 0.01 0.01 0.01 0.01 0.01 0.01 0.00 0.01 0.01 0.01 0.01 0.01 0.01 0.03 0.04 0.03 0.03 0.03 0.02 0.01 0.01 0.01 0.01 0.01 0.02 0.02 0.02
0.05 0.06 0.06 0.05 0.04 0.03 0.02 0.02 0.02 0.02 0.01 0.01 0.01 0.01 0.01 0.01 0.01 0.02 0.01 0.01 0.01 0.00 0.00 0.00 0.01 0.01 0.01 0.01 0.01 0.01 0.02 0.03 0.03 0.02 0.02 0.01 0.01 0.01 0.01 0.01 0.01 0.02 0.02
0.06 0.07 0.06 0.05 0.03 0.03 0.02 0.02 0.01 0.01 0.01 0.01 0.01 0.01 0.01 0.02 0.01 0.02 0.01 0.01 0.01 0.00 0.00 0.01 0.01 0.01 0.01 0.01 0.01 0.00 0.01 0.01 0.01 0.02 0.02 0.02 0.02 0.02 0.02 0.02 0.02 0.02 0.03
0.08 0.09 0.08 0.06 0.04 0.03 0.02 0.02 0.01 0.01 0.01 0.01 0.01 0.01 0.01 0.01 0.01 0.02 0.02 0.01 0.01 0.00 0.01 0.01 0.01 0.01 0.02 0.01 0.01 0.01 0.01 0.01 0.01 0.02 0.02 0.02 0.03 0.03 0.03 0.03 0.03 0.04 0.04
0.06 0.07 0.07 0.05 0.03 0.02 0.03 0.02 0.01 0.01 0.02 0.02 0.01 0.01 0.01 0.01 0.01 0.01 0.01 0.01 0.01 0.01 0.01 0.00 0.01 0.01 0.01 0.01 0.01 0.02 0.02 0.01 0.01 0.01 0.02 0.03 0.04 0.04 0.04 0.04 0.04 0.04 0.04
0.06 0.07 0.05 0.04 0.03 0.03 0.02 0.02 0.02 0.02 0.02 0.02 0.01 0.02 0.02 0.01 0.01 0.01 0.01 0.01 0.01 0.01 0.01 0.00 0.00 0.00 0.00 0.00 0.00 0.01 0.02 0.02 0.02 0.01 0.01 0.02 0.03 0.04 0.05 0.04 0.04 0.04 0.04
0.05 0.04 0.03 0.03 0.03 0.03 0.02 0.02 0.03 0.03 0.03 0.03 0.04 0.04 0.03 0.02 0.01 0.01 0.01 0.01 0.01 0.02 0.02 0.01 0.01 0.01 0.01 0.01 0.01 0.00 0.01 0.01 0.01 0.01 0.01 0.01 0.02 0.03 0.03 0.04 0.04 0.03 0.03
0.03 0.03 0.03 0.03 0.02 0.02 0.02 0.02 0.02 0.03 0.04 0.04 0.05 0.04 0.04 0.03 0.02 0.01 0.01 0.01 0.01 0.01 0.02 0.01 0.01 0.02 0.02 0.02 0.01 0.01 0.01 0.01 0.01 0.01 0.01 0.01 0.01 0.02 0.02 0.03 0.03 0.03 0.02
0.03 0.02 0.03 0.03 0.03 0.03 0.03 0.03 0.03 0.03 0.03 0.03 0.03 0.03 0.03 0.02 0.02 0.02 0.01 0.01 0.01 0.01 0.01 0.01 0.01 0.01 0.01 0.01 0.01 0.02 0.02 0.02 0.02 0.02 0.02 0.02 0.01 0.01 0.01 0.02 0.02 0.02 0.02
0.02 0.02 0.02 0.03 0.04 0.04 0.03 0.03 0.03 0.03 0.03 0.03 0.03 0.03 0.03 0.02 0.01 0.01 0.01 0.00 0.00 0.00 0.00 0.00 0.00 0.01 0.01 0.01 0.01 0.02 0.02 0.03 0.02 0.01 0.01 0.01 0.01 0.01 0.01 0.02 0.02 0.02 0.02
0.02 0.02 0.03 0.03 0.04 0.05 0.03 0.03 0.03 0.04 0.03 0.02 0.02 0.02 0.02 0.02 0.01 0.01 0.01 0.00 0.00 0.00 0.00 0.00 0.00 0.00 0.01 0.01 0.02 0.02 0.02 0.02 0.01 0.01 0.01 0.01 0.01 0.02 0.01 0.01 0.02 0.03 0.04
0.02 0.02 0.03 0.04 0.05 0.06 0.05 0.04 0.03 0.03 0.03 0.02 0.02 0.02 0.02 0.01 0.01 0.01 0.00 0.00 0.00 0.00 0.00 0.00 0.00 0.00 0.01 0.01 0.01 0.01 0.01 0.01 0.01 0.01 0.02 0.02 0.02 0.02 0.02 0.02 0.02 0.03 0.03
0.01 0.01 0.01 0.02 0.03 0.04 0.05 0.04 0.03 0.03 0.04 0.03 0.03 0.02 0.02 0.01 0.01 0.01 0.01 0.01 0.01 0.01 0.01 0.01 0.01 0.01 0.01 0.01 0.01 0.01 0.01 0.01 0.01 0.02 0.02 0.02 0.02 0.02 0.02 0.02 0.01 0.01 0.02
0.01 0.01 0.01 0.02 0.02 0.03 0.03 0.04 0.04 0.05 0.06 0.05 0.04 0.03 0.03 0.02 0.02 0.01 0.01 0.01 0.01 0.01 0.01 0.01 0.01 0.01 0.01 0.01 0.01 0.01 0.02 0.02 0.01 0.02 0.02 0.02 0.02 0.02 0.02 0.02 0.01 0.01 0.01
0.01 0.01 0.02 0.03 0.03 0.02 0.02 0.03 0.04 0.04 0.06 0.06 0.06 0.05 0.04 0.03 0.02 0.02 0.02 0.01 0.02 0.02 0.01 0.01 0.02 0.02 0.02 0.03 0.02 0.02 0.02 0.02 0.03 0.03 0.02 0.01 0.01 0.01 0.01 0.01 0.02 0.02 0.02
0.02 0.03 0.03 0.03 0.02 0.03 0.03 0.03 0.04 0.05 0.05 0.05 0.06 0.06 0.05 0.04 0.02 0.02 0.02 0.02 0.01 0.01 0.01 0.01 0.02 0.02 0.02 0.02 0.02 0.02 0.02 0.02 0.03 0.04 0.03 0.02 0.01 0.01 0.01 0.01 0.02 0.02 0.02
0.02 0.03 0.02 0.01 0.01 0.02 0.03 0.04 0.04 0.05 0.05 0.04 0.04 0.05 0.04 0.03 0.02 0.01 0.01 0.01 0.01 0.01 0.01 0.02 0.01 0.01 0.01 0.01 0.01 0.01 0.01 0.02 0.05 0.04 0.02 0.01 0.01 0.01 0.01 0.01 0.01 0.01 0.02
MSLP
1006.54 1007.17 1007.97 1008.85 1009.75 1010.60 1011.38 1012.05 1012.62 1013.11 1013.52 1013.87 1014.16 1014.39 1014.53 1014.57 1014.50 1014.32 1014.03 1013.66 1013.23 1012.79 1012.37 1012.00 1011.72 1011.54 1011.48 1011.56 1011.77 1012.10 1012.55 1013.09 1013.70 1014.34 1014.98 1015.59 1016.12 1016.56 1016.90 1017.14 1017.30 1017.41 1017.48
1006.50 1007.12 1007.90 1008.77 1009.67 1010.54 1011.34 1012.05 1012.66 1013.17 1013.62 1014.00 1014.32 1014.57 1014.75 1014.84 1014.82 1014.70 1014.47 1014.15 1013.77 1013.34 1012.93 1012.54 1012.23 1012.01 1011.91 1011.95 1012.12 1012.44 1012.88 1013.42 1014.04 1014.69 1015.34 1015.95 1016.48 1016.92 1017.26 1017.51 1017.69 1017.82 1017.93
1006.65 1007.24 1007.99 1008.84 1009.72 1010.58 1011.37 1012.08 1012.71 1013.25 1013.72 1014.13 1014.48 1014.78 1015.00 1015.15 1015.21 1015.16 1015.01 1014.77 1014.45 1014.09 1013.70 1013.34 1013.03 1012.79 1012.67 1012.68 1012.83 1013.11 1013.52 1014.03 1014.61 1015.22 1015.83 1016.40 1016.90 1017.32 1017.64 1017.89 1018.08 1018.24 1018.39
1006.89 1007.46 1008.17 1008.97 1009.81 1010.64 1011.41 1012.12 1012.75 1013.31 1013.80 1014.25 1014.65 1014.99 1015.28 1015.49 1015.63 1015.66 1015.61 1015.46 1015.22 1014.93 1014.62 1014.31 1014.03 1013.82 1013.70 1013.70 1013.82 1014.07 1014.43 1014.88 1015.39 1015.93 1016.47 1016.97 1017.41 1017.78 1018.08 1018.32 1018.52 1018.70 1018.88
1007.16 1007.71 1008.37 1009.12 1009.91 1010.68 1011.43 1012.12 1012.76 1013.33 1013.86 1014.35 1014.79 1015.20 1015.54 1015.83 1016.04 1016.16 1016.19 1016.14 1016.00 1015.81 1015.58 1015.35 1015.14 1014.98 1014.89 1014.90 1015.01 1015.22 1015.53 1015.91 1016.34 1016.80 1017.24 1017.66 1018.03 1018.34 1018.60 1018.83 1019.03 1019.23 1019.43
1007.41 1007.92 1008.54 1009.23 1009.96 1010.68 1011.40 1012.07 1012.71 1013.31 1013.87 1014.41 1014.90 1015.36 1015.77 1016.11 1016.39 1016.59 1016.71 1016.75 1016.72 1016.62 1016.50 1016.36 1016.23 1016.14 1016.10 1016.14 1016.26 1016.45 1016.71 1017.03 1017.38 1017.74 1018.09 1018.42 1018.71 1018.97 1019.20 1019.40 1019.60 1019.82 1020.04
1007.60 1008.08 1008.65 1009.28 1009.95 1010.62 1011.30 1011.97 1012.61 1013.23 1013.83 1014.41 1014.95 1015.46 1015.92 1016.33 1016.67 1016.93 1017.13 1017.25 1017.31 1017.32 1017.29 1017.26 1017.22 1017.21 1017.23 1017.31 1017.44 1017.62 1017.85 1018.11 1018.39 1018.67 1018.95 1019.20 1019.43 1019.64 1019.83 1020.02 1020.22 1020.44 1020.67
1007.76 1008.20 1008.72 1009.29 1009.89 1010.52 1011.17 1011.82 1012.47 1013.11 1013.74 1014.36 1014.95 1015.51 1016.02 1016.47 1016.85 1017.18 1017.43 1017.63 1017.77 1017.87 1017.94 1017.99 1018.05 1018.12 1018.21 1018.33 1018.48 1018.66 1018.86 1019.08 1019.31 1019.53 1019.74 1019.94 1020.12 1020.29 1020.47 1020.65 1020.84 1021.05 1021.28
1007.93 1008.33 1008.78 1009.29 1009.84 1010.42 1011.03 1011.66 1012.32 1012.98 1013.65 1014.30 1014.93 1015.52 1016.06 1016.55 1016.98 1017.35 1017.66 1017.91 1018.12 1018.29 1018.45 1018.59 1018.72 1018.86 1019.01 1019.17 1019.34 1019.52 1019.71 1019.91 1020.09 1020.27 1020.44 1020.60 1020.76 1020.91 1021.07 1021.24 1021.43 1021.63 1021.84
1008.14 1008.49 1008.89 1009.34 1009.83 1010.36 1010.94 1011.56 1012.21 1012.89 1013.57 1014.25 1014.91 1015.53 1016.11 1016.63 1017.09 1017.49 1017.84 1018.15 1018.42 1018.66 1018.88 1019.08 1019.28 1019.47 1019.66 1019.85 1020.04 1020.22 1020.41 1020.58 1020.74 1020.90 1021.05 1021.19 1021.32 1021.46 1021.61 1021.78 1021.95 1022.14 1022.33
1008.43 1008.74 1009.08 1009.46 1009.89 1010.39 1010.93 1011.54 1012.19 1012.87 1013.58 1014.28 1014.95 1015.60 1016.19 1016.73 1017.22 1017.66 1018.04 1018.39 1018.71 1019.00 1019.28 1019.53 1019.78 1020.01 1020.23 1020.43 1020.63 1020.81 1020.98 1021.14 1021.29 1021.44 1021.57 1021.70 1021.83 1021.97 1022.10 1022.26 1022.41 1022.58 1022.74
1008.82 1009.07 1009.35 1009.68 1010.07 1010.53 1011.06 1011.65 1012.30 1012.98 1013.69 1014.40 1015.09 1015.75 1016.36 1016.91 1017.42 1017.88 1018.30 1018.68 1019.04 1019.38 1019.69 1019.99 1020.26 1020.52 1020.75 1020.96 1021.16 1021.33 1021.49 1021.64 1021.78 1021.92 1022.05 1022.17 1022.30 1022.43 1022.55 1022.69 1022.82 1022.95 1023.08
1009.27 1009.48 1009.72 1010.02 1010.38 1010.81 1011.33 1011.91 1012.56 1013.25 1013.96 1014.67 1015.36 1016.02 1016.63 1017.19 1017.71 1018.18 1018.63 1019.04 1019.43 1019.79 1020.14 1020.46 1020.75 1021.02 1021.25 1021.47 1021.65 1021.82 1021.97 1022.11 1022.25 1022.38 1022.51 1022.63 1022.75 1022.86 1022.97 1023.08 1023.18 1023.27 1023.35
1009.77 1009.95 1010.17 1010.45 1010.80 1011.23 1011.75 1012.34 1012.99 1013.68 1014.39 1015.09 1015.77 1016.41 1017.01 1017.57 1018.08 1018.56 1019.01 1019.44 1019.84 1020.23 1020.59 1020.93 1021.23 1021.50 1021.74 1021.95 1022.12 1022.28 1022.43 1022.57 1022.70 1022.83 1022.95 1023.07 1023.18 1023.28 1023.37 1023.45 1023.51 1023.56 1023.59
1010.30 1010.47 1010.69 1010.97 1011.33 1011.78 1012.32 1012.92 1013.58 1014.27 1014.96 1015.65 1016.30 1016.91 1017.49 1018.02 1018.51 1018.98 1019.42 1019.85 1020.26 1020.66 1021.02 1021.36 1021.67 1021.95 1022.18 1022.39 1022.56 1022.72 1022.86 1022.99 1023.13 1023.26 1023.38 1023.50 1023.60 1023.69 1023.75 1023.79 1023.82 1023.82 1023.81
1010.84 1011.02 1011.25 1011.56 1011.96 1012.44 1013.01 1013.63 1014.30 1014.98 1015.66 1016.32 1016.93 1017.50 1018.03 1018.51 1018.97 1019.40 1019.82 1020.23 1020.63 1021.02 1021.39 1021.73 1022.04 1022.32 1022.56 1022.76 1022.94 1023.10 1023.25 1023.39 1023.53 1023.66 1023.78 1023.90 1023.99 1024.06 1024.10 1024.12 1024.10 1024.07 1024.02
1011.39 1011.59 1011.86 1012.21 1012.66 1013.19 1013.79 1014.43 1015.11 1015.78 1016.43 1017.05 1017.61 1018.12 1018.58 1019.01 1019.41 1019.79 1020.17 1020.55 1020.93 1021.30 1021.66 1022.00 1022.31 1022.59 1022.84 1023.06 1023.25 1023.42 1023.58 1023.73 1023.88 1024.02 1024.15 1024.26 1024.34 1024.40 1024.42 1024.41 1024.36 1024.30 1024.21
1011.95 1012.18 1012.51 1012.91 1013.41 1013.99 1014.62 1015.29 1015.96 1016.61 1017.23 1017.79 1018.28 1018.72 1019.11 1019.47 1019.80 1020.13 1020.46 1020.80 1021.15 1021.49 1021.84 1022.18 1022.49 1022.78 1023.04 1023.28 1023.48 1023.68 1023.86 1024.03 1024.19 1024.34 1024.47 1024.58 1024.66 1024.70 1024.70 1024.67 1024.60 1024.51 1024.39
1012.55 1012.83 1013.20 1013.66 1014.21 1014.82 1015.47 1016.14 1016.80 1017.42 1017.98 1018.48 1018.90 1019.27 1019.58 1019.86 1020.13 1020.39 1020.67 1020.97 1021.28 1021.62 1021.95 1022.28 1022.60 1022.91 1023.18 1023.44 1023.67 1023.89 1024.09 1024.29 1024.46 1024.62 1024.76 1024.86 1024.93 1024.95 1024.94 1024.88 1024.80 1024.68 1024.55
1013.20 1013.52 1013.93 1014.43 1015.01 1015.63 1016.29 1016.94 1017.56 1018.14 1018.64 1019.07 1019.42 1019.71 1019.95 1020.17 1020.38 1020.59 1020.83 1021.09 1021.38 1021.70 1022.03 1022.36 1022.69 1023.01 1023.30 1023.58 1023.84 1024.08 1024.31 1024.52 1024.70 1024.87 1025.00 1025.10 1025.15 1025.16 1025.13 1025.06 1024.94 1024.81 1024.67
1013.91 1014.26 1014.69 1015.21 1015.78 1016.40 1017.03 1017.64 1018.21 1018.72 1019.16 1019.52 1019.80 1020.03 1020.22 1020.38 1020.55 1020.73 1020.94 1021.18 1021.46 1021.77 1022.10 1022.44 1022.78 1023.10 1023.42 1023.72 1024.00 1024.26 1024.50 1024.72 1024.92 1025.08 1025.21 1025.29 1025.33 1025.32 1025.27 1025.17 1025.04 1024.89 1024.72
1014.67 1015.02 1015.45 1015.95 1016.50 1017.07 1017.65 1018.20 1018.70 1019.14 1019.51 1019.80 1020.03 1020.22 1020.37 1020.51 1020.66 1020.83 1021.03 1021.28 1021.56 1021.87 1022.20 1022.54 1022.88 1023.22 1023.55 1023.86 1024.15 1024.42 1024.67 1024.89 1025.08 1025.24 1025.36 1025.43 1025.44 1025.41 1025.33 1025.21 1025.05 1024.88 1024.69
1015.43 1015.77 1016.17 1016.62 1017.11 1017.62 1018.12 1018.59 1019.02 1019.38 1019.69 1019.93 1020.13 1020.29 1020.43 1020.58 1020.73 1020.91 1021.13 1021.39 1021.67 1021.99 1022.32 1022.66 1023.01 1023.34 1023.66 1023.96 1024.25 1024.52 1024.76 1024.98 1025.16 1025.31 1025.41 1025.46 1025.46 1025.40 1025.30 1025.15 1024.97 1024.77 1024.56
1016.15 1016.45 1016.80 1017.20 1017.61 1018.03 1018.45 1018.83 1019.18 1019.48 1019.73 1019.95 1020.12 1020.28 1020.44 1020.60 1020.79 1021.00 1021.24 1021.52 1021.82 1022.14 1022.46 1022.79 1023.11 1023.43 1023.72 1024.01 1024.27 1024.52 1024.74 1024.94 1025.11 1025.24 1025.33 1025.37 1025.35 1025.27 1025.15 1024.98 1024.78 1024.55 1024.31
1016.77 1017.03 1017.32 1017.64 1017.98 1018.32 1018.64 1018.95 1019.22 1019.47 1019.70 1019.89 1020.08 1020.25 1020.44 1020.64 1020.86 1021.11 1021.39 1021.67 1021.98 1022.29 1022.59 1022.89 1023.18 1023.45 1023.70 1023.94 1024.17 1024.38 1024.57 1024.75 1024.90 1025.02 1025.10 1025.12 1025.09 1025.01 1024.87 1024.69 1024.47 1024.22 1023.96
1017.27 1017.48 1017.72 1017.97 1018.22 1018.49 1018.74 1018.98 1019.21 1019.43 1019.64 1019.84 1020.04 1020.25 1020.47 1020.72 1020.98 1021.27 1021.56 1021.86 1022.15 1022.43 1022.70 1022.95 1023.17 1023.37 1023.57 1023.74 1023.91 1024.08 1024.24 1024.39 1024.53 1024.63 1024.70 1024.72 1024.70 1024.61 1024.47 1024.29 1024.06 1023.79 1023.52
Thickness
5740 5738 5734 5732 5731 5729 5726 5725 5723 5720 5719 5716 5713 5711 5709 5707 5704 5702 5699 5697 5694 5692 5691 5689 5687 5685 5683 5682 5681 5679 5676 5674 5669 5669 5670 5671 5671 5671 5670 5670 5671 5671 5670
5736 5733 5730 5728 5726 5724 5722 5720 5719 5717 5715 5712 5709 5707 5705 5702 5699 5696 5694 5692 5690 5687 5685 5683 5681 5680 5678 5676 5675 5673 5671 5670 5667 5663 5664 5664 5665 5665 5665 5664 5665 5665 5664
5731 5728 5725 5723 5721 5719 5717 5716 5714 5712 5710 5708 5705 5702 5700 5697 5695 5693 5690 5688 5686 5684 5681 5679 5677 5675 5672 5671 5670 5668 5666 5666 5663 5660 5658 5659 5659 5659 5658 5659 5659 5659 5659
5725 5722 5719 5718 5717 5715 5713 5711 5709 5707 5705 5703 5701 5699 5696 5693 5691 5688 5686 5684 5681 5679 5677 5675 5673 5671 5668 5666 5665 5663 5661 5659 5657 5655 5652 5652 5652 5653 5652 5651 5651 5652 5652
5720 5717 5715 5714 5712 5710 5708 5706 5704 5702 5700 5698 5696 5694 5692 5689 5687 5684 5682 5680 5676 5674 5672 5671 5669 5668 5666 5664 5662 5658 5656 5653 5651 5648 5646 5645 5644 5644 5644 5644 5644 5644 5645
5714 5712 5710 5708 5707 5705 5703 5701 5698 5696 5694 5692 5690 5688 5686 5685 5683 5681 5678 5675 5672 5669 5667 5665 5664 5663 5662 5660 5658 5656 5654 5650 5646 5644 5642 5640 5640 5640 5640 5639 5637 5636 5635
5708 5707 5705 5703 5701 5700 5699 5695 5692 5690 5688 5686 5684 5683 5681 5679 5678 5676 5674 5671 5667 5665 5663 5660 5660 5659 5656 5655 5653 5652 5650 5649 5647 5643 5639 5638 5637 5638 5636 5634 5632 5630 5630
5702 5700 5699 5698 5696 5695 5692 5689 5687 5685 5683 5681 5679 5677 5675 5674 5673 5671 5669 5666 5663 5660 5659 5657 5654 5652 5652 5650 5648 5645 5644 5643 5642 5640 5638 5637 5637 5636 5633 5631 5628 5626 5625
5695 5694 5693 5692 5690 5688 5686 5684 5682 5680 5678 5676 5674 5672 5670 5669 5668 5666 5664 5660 5657 5655 5654 5653 5650 5648 5647 5645 5642 5639 5637 5637 5637 5636 5635 5634 5633 5632 5630 5626 5622 5619 5617
5690 5689 5689 5687 5685 5684 5681 5679 5677 5675 5673 5671 5669 5667 5665 5663 5662 5661 5658 5655 5651 5649 5648 5647 5646 5644 5642 5639 5636 5633 5630 5630 5629 5629 5628 5627 5626 5625 5624 5621 5618 5614 5612
5686 5684 5683 5682 5680 5679 5676 5674 5672 5670 5667 5665 5663 5661 5660 5659 5658 5656 5653 5650 5647 5644 5642 5640 5640 5638 5636 5634 5631 5628 5626 5625 5623 5621 5620 5619 5618 5618 5617 5616 5615 5612 5608
5679 5677 5676 5675 5674 5674 5670 5668 5666 5664 5661 5659 5656 5655 5654 5654 5653 5651 5649 5646 5644 5640 5638 5636 5635 5633 5631 5628 5626 5624 5622 5619 5616 5614 5612 5611 5610 5610 5610 5611 5610 5609 5607
5672 5671 5670 5668 5667 5666 5664 5661 5659 5657 5655 5653 5651 5649 5648 5648 5647 5646 5644 5642 5639 5636 5634 5632 5630 5628 5625 5623 5621 5619 5616 5613 5610 5607 5606 5605 5605 5605 5605 5604 5604 5603 5603
5665 5664 5663 5661 5659 5658 5657 5656 5654 5652 5649 5647 5645 5644 5643 5642 5641 5640 5637 5635 5633 5629 5627 5626 5624 5622 5620 5618 5615 5613 5610 5607 5605 5602 5601 5600 5600 5599 5598 5597 5595 5595 5594
5657 5656 5655 5654 5652 5651 5649 5649 5648 5648 5647 5644 5642 5641 5638 5636 5637 5636 5632 5629 5627 5624 5621 5618 5616 5614 5612 5610 5608 5606 5604 5602 5599 5597 5596 5595 5594 5593 5592 5591 5589 5587 5585
5649 5648 5647 5647 5646 5644 5643 5642 5643 5643 5643 5642 5640 5638 5636 5635 5633 5630 5627 5624 5621 5618 5614 5611 5609 5607 5605 5604 5603 5601 5599 5597 5595 5593 5592 5590 5588 5587 5586 5585 5583 5581 5580
5642 5641 5640 5639 5639 5638 5636 5635 5633 5634 5634 5634 5633 5632 5630 5628 5626 5623 5620 5617 5614 5611 5607 5605 5603 5602 5601 5599 5597 5595 5594 5593 5591 5589 5588 5586 5584 5583 5581 5580 5578 5576 5574
5635 5634 5633 5632 5632 5631 5630 5629 5627 5626 5624 5624 5624 5623 5622 5620 5618 5615 5612 5609 5606 5603 5602 5600 5598 5597 5596 5594 5592 5590 5589 5587 5586 5584 5583 5581 5580 5578 5576 5574 5573 5571 5570
5628 5627 5626 5625 5625 5624 5623 5622 5621 5619 5617 5616 5615 5614 5613 5611 5609 5607 5604 5601 5600 5598 5597 5595 5594 5593 5591 5589 5587 5585 5583 5581 5580 5579 5577 5576 5574 5573 5571 5570 5568 5567 5565
5621 5620 5619 5618 5617 5616 5615 5614 5613 5611 5609 5608 5607 5606 5604 5601 5599 5598 5596 5595 5594 5592 5591 5589 5588 5587 5585 5583 5581 5579 5577 5576 5574 5573 5572 5570 5569 5567 5566 5565 5563 5561 5560
5613 5612 5612 5610 5609 5609 5608 5607 5606 5604 5602 5601 5600 5600 5597 5595 5594 5593 5591 5589 5588 5587 5585 5583 5581 5580 5578 5577 5575 5573 5572 5570 5568 5567 5566 5564 5563 5561 5560 5559 5557 5556 5555
5605 5604 5603 5602 5602 5601 5601 5601 5599 5597 5596 5595 5593 5592 5590 5589 5588 5586 5585 5584 5583 5581 5579 5577 5575 5573 5572 5570 5569 5568 5565 5563 5562 5561 5559 5558 5557 5555 5554 5552 5551 5550 5549
5597 5597 5596 5595 5595 5594 5593 5593 5592 5590 5588 5587 5586 5585 5583 5582 5580 5579 5578 5576 5575 5573 5571 5570 5568 5566 5565 5564 5562 5561 5559 5557 5555 5554 5552 5551 5550 5548 5546 5545 5544 5543 5542
5590 5589 5589 5588 5587 5586 5585 5584 5583 5582 5581 5579 5578 5576 5575 5574 5574 5572 5571 5569 5568 5566 5564 5562 5560 5559 5558 5556 5555 5554 5552 5551 5549 5548 5546 5544 5542 5541 5539 5538 5537 5536 5535
5583 5582 5581 5580 5579 5578 5576 5575 5574 5573 5572 5571 5569 5568 5567 5567 5566 5564 5563 5562 5560 5558 5556 5555 5553 5551 5550 5549 5547 5546 5545 5544 5542 5541 5539 5537 5535 5533 5532 5531 5529 5528 5528
5576 5576 5574 5573 5571 5570 5568 5567 5566 5565 5563 5562 5561 5560 5559 5558 5558 5557 5555 5553 5552 5550 5549 5547 5546 5544 5543 5541 5540 5538 5537 5536 5534 5533 5531 5529 5527 5526 5525 5523 5523 5522 5522